カタログに戻る

COSMOS 1275 DEB

運用中PO
NORAD 42133·DEBRIS·🇷🇺 Russia

打ち上げ Jun 4, 1981 から Plesetsk Cosmodrome

Loading…

次のパス (今後24時間)

TLE

最新Source: Space-Track

元期: Sep 13, 2026, 11:18 UTC

1 42133U 81053QV  26256.47105276  .00000824  00000-0  98455-3 0  9991
2 42133  83.1297 308.2573 0161352 298.5085  59.9897 13.60796760132286

AllMySatでCOSMOS 1275 DEBをリアルタイム追跡

Download on the App Store